EDT,Max TemperatureF,Mean TemperatureF,Min TemperatureF,Max Dew PointF,MeanDew PointF,Min DewpointF,Max Humidity, Mean Humidity, Min Humidity, Max Sea Level PressureIn, Mean Sea Level PressureIn, Min Sea Level PressureIn, Max VisibilityMiles, Mean VisibilityMiles, Min VisibilityMiles, Max Wind SpeedMPH, Mean Wind SpeedMPH, Max Gust SpeedMPH,PrecipitationIn, CloudCover, Events, WindDirDegrees
2013-9-1,82,74,68,70,67,65,96,82,62,29.88,29.84,29.77,10,6,2,9,1,,0.07,7,Rain-Thunderstorm,109
2013-9-2,84,75,66,70,66,56,100,84,58,29.82,29.77,29.67,10,6,0,10,3,18,0.61,5,Fog-Rain-Thunderstorm,242
2013-9-3,68,63,60,57,55,53,87,74,61,29.95,29.86,29.79,10,10,7,12,5,22,0.00,6,,255
2013-9-4,78,68,57,57,54,51,87,62,42,30.01,29.97,29.95,10,10,8,13,7,18,0.00,1,,245
2013-9-5,68,57,48,60,48,41,90,66,46,30.23,30.11,29.97,10,10,10,13,6,18,0.01,3,Rain,313
2013-9-6,71,58,46,51,45,41,90,68,38,30.30,30.23,30.13,10,10,10,6,3,,0.00,0,,212
2013-9-7,69,61,53,57,51,48,89,69,50,30.13,30.01,29.88,10,10,10,12,5,16,0.00,3,,213
2013-9-8,66,56,46,63,52,42,94,76,45,30.14,30.00,29.86,10,8,2,14,6,20,0.07,5,Rain,309
2013-9-9,75,60,45,56,49,43,93,69,45,30.20,30.12,30.01,10,10,10,15,6,25,0.00,1,,200
2013-9-10,93,78,64,72,66,58,88,72,48,30.05,30.00,29.96,10,8,6,15,10,23,0.01,2,Rain-Thunderstorm,207
2013-9-11,93,82,70,73,69,64,90,74,40,30.06,30.01,29.93,10,7,1,16,9,28,0.38,3,Rain-Thunderstorm,210
2013-9-12,78,70,62,68,64,57,97,83,69,29.93,29.83,29.74,10,7,0,18,6,56,0.78,5,Fog-Rain-Thunderstorm,218
2013-9-13,61,55,50,56,51,46,94,87,77,30.00,29.87,29.74,10,8,2,14,6,22,0.07,8,Rain,327
2013-9-14,60,52,45,48,44,41,94,77,49,30.15,30.07,29.99,10,10,8,8,5,,0.00,6,,301
2013-9-15,68,56,46,52,46,42,90,70,45,30.19,30.13,30.08,10,10,10,10,5,,0.00,1,,209
2013-9-16,60,52,39,52,48,38,94,87,71,30.38,30.22,30.09,10,7,2,9,5,17,0.05,7,Rain,336
2013-9-17,63,48,34,46,40,33,96,78,43,30.51,30.43,30.33,10,8,0,6,2,,0.00,1,Fog,194
2013-9-18,73,59,46,48,44,42,93,65,34,30.33,30.23,30.14,10,8,4,8,5,16,0.00,0,,201
2013-9-19,77,63,51,56,49,46,89,65,35,30.16,30.10,30.04,10,9,3,9,5,,0.00,0,,211
2013-9-20,80,68,57,61,57,55,94,74,47,30.05,29.98,29.84,10,5,1,16,8,22,0.01,0,,199
2013-9-21,71,62,55,61,58,51,94,84,65,29.82,29.70,29.65,10,6,1,17,9,31,0.63,6,Rain,212
2013-9-22,57,52,48,49,43,38,83,71,57,30.02,29.88,29.73,10,10,7,13,8,21,0.00,7,Rain,285
2013-9-23,59,48,39,45,41,38,93,74,49,30.15,30.09,30.02,10,10,7,8,5,17,0.00,6,Rain,319
2013-9-24,66,54,44,46,43,39,90,73,39,30.15,30.09,30.01,10,10,9,10,5,,0.00,1,,279
2013-9-25,71,58,45,50,45,42,93,75,44,30.03,30.00,29.95,10,9,4,7,4,,0.00,0,,225
2013-9-26,70,57,44,53,47,42,100,81,49,30.16,30.08,30.02,10,9,5,8,2,,0.00,3,,242
2013-9-27,71,58,45,54,49,43,100,84,53,30.28,30.23,30.17,10,7,0,6,2,,0.00,2,Fog,194
2013-9-28,70,58,46,54,50,45,100,84,51,30.34,30.28,30.22,10,5,0,10,2,,0.00,2,Fog,182
2013-9-29,73,60,46,50,48,44,93,70,40,30.21,30.12,30.05,10,9,4,15,6,21,0.00,0,,200
2013-9-30,77,64,54,56,52,49,87,70,44,30.06,30.01,29.96,10,10,8,8,4,,0.00,3,,210